Weather History for KBAZ - May, 2014

Change the Weather History Date:

Sunday, May 18, 2014

  Actual Average (KSAT) Record (KSAT)
Temperature  
Mean Temperature 70 °F 78 °F  
Max Temperature 86 °F 88 °F 97 °F (1981)
Min Temperature 57 °F 68 °F 52 °F (1945)
Degree Days  
Heating Degree Days 0 0  
Month to date heating degree days 0  
Since 1 July heating degree days 1494  
Cooling Degree Days 6 12  
Month to date cooling degree days 188  
Year to date cooling degree days 447  
Growing Degree Days 20 (Base 50)    
Moisture  
Dew Point 59 °F    
Average Humidity 66    
Maximum Humidity 100    
Minimum Humidity 38    
Precipitation  
Precipitation 0.00 in 0.13 in 3.05 in (1965)
Month to date precipitation 2.17  
Year to date precipitation 10.13  
Snow  
Snow 0.00 in - - ()
Month to date snowfall  
Since 1 July snowfall  
Snow Depth -    
Sea Level Pressure  
Sea Level Pressure 30.02 in    
Wind  
Wind Speed 10 mph (SSE)    
Max Wind Speed 20 mph    
Max Gust Speed 30 mph    
Visibility 10 miles    
Events      
T = Trace of Precipitation, MM = Missing Value Source: NWS Daily Summary

Daily Weather History Graph

Daily Weather History Graph

Search for Another Location

Airport or City:

Trip Planner

Search our weather history database for the weather conditions in past years. The results will help you decide how hot, cold, wet, or windy it might be!

Date:

Astronomy

May. 18, 2014 Rise Set
Actual Time 6:37 AM CDT 8:20 PM CDT
Civil Twilight 6:11 AM CDT 8:46 PM CDT
Nautical Twilight 5:39 AM CDT 9:17 PM CDT
Astronomical Twilight 5:06 AM CDT 9:51 PM CDT
Moon No Moon Rise 10:24 AM CDT (5/18)
Length of Visible Light 14h 34m
Length of Day
13h 42m
Waning Gibbous, 81% of the Moon is Illuminated
May 18
Waning Gibbous
May 21
Last Quarter
May 28
New
Jun 5
First Quarter
Jun 12
Full

Hourly Weather History & Observations

Time (CDT) Temp. Heat Index Dew Point Humidity Pressure Visibility Wind Dir Wind Speed Gust Speed Precip Events Conditions
12:51 AM 62.1 °F - 57.9 °F 86% 30.01 in 10.0 mi South 5.8 mph - N/A   Clear
1:51 AM 61.0 °F - 59.0 °F 93% 30.02 in 10.0 mi South 5.8 mph - N/A   Clear
2:51 AM 59.0 °F - 57.9 °F 96% 30.02 in 10.0 mi East 3.5 mph - N/A   Clear
4:06 AM 59.0 °F - 57.9 °F 96% 30.04 in 10.0 mi ESE 3.5 mph - N/A   Scattered Clouds
4:51 AM 57.9 °F - 57.0 °F 97% 30.02 in 10.0 mi SE 6.9 mph - N/A   Clear
5:51 AM 57.9 °F - 57.9 °F 100% 30.02 in 8.0 mi SSE 5.8 mph - N/A   Clear
7:51 AM 64.0 °F - 62.1 °F 93% 30.06 in 10.0 mi SSE 6.9 mph - N/A   Mostly Cloudy
8:51 AM 69.1 °F - 63.0 °F 81% 30.05 in 10.0 mi SSE 13.8 mph - N/A   Overcast
10:23 AM 75.0 °F - 61.0 °F 62% 30.08 in 10.0 mi South 16.1 mph 20.7 mph N/A   Mostly Cloudy
10:30 AM 75.9 °F - 60.1 °F 58% 30.08 in 10.0 mi South 17.3 mph - N/A   Mostly Cloudy
10:51 AM 75.9 °F - 61.0 °F 60% 30.06 in 10.0 mi South 19.6 mph 23.0 mph N/A   Mostly Cloudy
11:51 AM 79.0 °F - 59.0 °F 50% 30.05 in 10.0 mi South 17.3 mph 29.9 mph N/A   Scattered Clouds
12:51 PM 80.1 °F 80.7 °F 59.0 °F 48% 30.04 in 10.0 mi South 12.7 mph - N/A   Mostly Cloudy
1:51 PM 84.0 °F 83.8 °F 59.0 °F 43% 30.03 in 10.0 mi SSE 10.4 mph 25.3 mph N/A   Mostly Cloudy
2:51 PM 84.9 °F 84.4 °F 59.0 °F 41% 30.01 in 10.0 mi South 13.8 mph - N/A   Partly Cloudy
3:51 PM 84.9 °F 84.2 °F 57.9 °F 40% 29.99 in 10.0 mi SSE 18.4 mph 23.0 mph N/A   Scattered Clouds
4:51 PM 84.9 °F 83.9 °F 57.0 °F 38% 29.97 in 10.0 mi South 17.3 mph 27.6 mph N/A   Clear
5:51 PM 84.9 °F 83.9 °F 57.0 °F 38% 29.96 in 10.0 mi SSE 16.1 mph 25.3 mph N/A   Partly Cloudy
6:51 PM 82.0 °F 81.6 °F 55.9 °F 41% 29.97 in 10.0 mi SSE 16.1 mph - N/A   Clear
7:51 PM 78.1 °F - 57.0 °F 48% 29.98 in 10.0 mi SSE 17.3 mph - N/A   Clear
8:51 PM 73.9 °F - 57.9 °F 57% 29.99 in 10.0 mi South 13.8 mph - N/A   Clear
10:51 PM 69.1 °F - 59.0 °F 70% 30.03 in 10.0 mi South 10.4 mph - N/A   Clear
11:51 PM 66.0 °F - 60.1 °F 81% 30.04 in 10.0 mi South 8.1 mph - N/A   Clear